Flag for Germany Weather past 2 weeks in Fellbach, Baden-Württemberg, Germany

Now
48 °F

Sunny.


Feels Like: 43 °F
Forecast: 35 / 48 °F
Wind: 13 mph from Southwest

Location: Stuttgart-Echterdingen

Current Time: Dec 22, 2014 at 4:03:33 PM

Latest Report: Dec 22, 2014 at 3:20 PM


Visibility: 10 mi

Pressure: 30.27 "Hg

Humidity: 66%

Dew point: 37 °F

Location of FellbachLocation

Historic Weather in Fellbach — Graph

°F

Fellbach temperature yesterday

Maximum temperature yesterday: 45 °F (at 12:20 PM)
Minimum temperature yesterday: 37 °F (at 3:50 AM)
Average temperature yesterday: 41 °F

Past Weeks' High & Low Weather Summary

 TemperatureHumidityPressure
High54 °F (Dec 13, 3:20 PM)100% (Dec 9, 1:20 AM)30.51 "Hg (Dec 9, 1:20 AM)
Low28 °F (Dec 10, 3:20 AM)58% (Dec 12, 12:50 PM)29.74 "Hg (Dec 12, 4:50 PM)
Average42 °F83%30.08 "Hg
* Reported Dec 7 2:20 PM — Dec 22 2:50 PM, Fellbach, Weather by CustomWeather, © 2014

Note: Actual official high and low records may vary slightly from our data, if they occured in-between our weather recording intervals... More about our weather records

Advertising

Fellbach weather history for previous 24 hours

 ConditionsComfort  
Time TempWeatherWind HumidityBarometerVisibility
2:50 PM
Dec 22
48 °FSunny.14 mph66%30.24 "Hg10 mi
2:20 PM48 °FSunny.12 mph66%30.27 "Hg10 mi
1:50 PM48 °FSunny.9 mph66%30.30 "Hg10 mi
1:20 PM48 °FPartly sunny.8 mph66%30.30 "HgN/A
12:50 PM46 °FPartly sunny.10 mph71%30.30 "HgN/A
12:20 PM46 °FPartly sunny.6 mph71%30.33 "HgN/A
11:50 AM45 °FPartly sunny.6 mph76%30.33 "HgN/A
11:20 AM45 °FPartly sunny.6 mph71%30.33 "HgN/A
10:50 AM43 °FPartly sunny.12 mph76%30.33 "HgN/A
10:20 AM43 °FPartly sunny.10 mph76%30.33 "HgN/A
9:50 AM41 °FPartly sunny.9 mph76%30.33 "HgN/A
9:20 AM41 °FPartly sunny.7 mph76%30.36 "HgN/A
8:50 AM41 °FPartly sunny.9 mph76%30.36 "HgN/A
8:20 AM41 °FPartly sunny.9 mph76%30.36 "HgN/A
7:50 AM41 °FPassing clouds.9 mph76%30.33 "HgN/A
7:20 AM41 °FPassing clouds.9 mph76%30.33 "HgN/A
6:50 AM41 °FPassing clouds.9 mph76%30.33 "HgN/A
6:20 AM41 °FPassing clouds.10 mph76%30.33 "HgN/A
5:50 AM41 °FPassing clouds.9 mph76%30.33 "HgN/A
5:20 AM41 °FOvercast.8 mph76%30.36 "HgN/A
4:20 AM41 °FOvercast.8 mph76%30.36 "HgN/A
3:50 AM41 °FOvercast.10 mph76%30.39 "HgN/A
3:20 AM43 °FOvercast.10 mph71%30.39 "HgN/A
2:50 AM43 °FOvercast.9 mph71%30.39 "HgN/A
2:20 AM43 °FPassing clouds.10 mph71%30.39 "HgN/A
1:50 AM43 °FPassing clouds.10 mph71%30.39 "HgN/A
1:20 AM41 °FPassing clouds.8 mph76%30.39 "HgN/A
12:50 AM43 °FPassing clouds.8 mph71%30.39 "HgN/A
12:20 AM41 °FPassing clouds.8 mph76%30.39 "HgN/A
11:50 PM
Dec 21
41 °FPassing clouds.7 mph76%30.39 "HgN/A
11:20 PM41 °FPassing clouds.9 mph76%30.39 "HgN/A
10:20 PM41 °FPassing clouds.7 mph76%30.42 "HgN/A
9:50 PM41 °FPassing clouds.6 mph76%30.42 "HgN/A
9:20 PM43 °FPassing clouds.8 mph71%30.42 "HgN/A
8:50 PM43 °FPassing clouds.8 mph71%30.45 "HgN/A
8:20 PM43 °FPassing clouds.8 mph71%30.45 "HgN/A
7:50 PM41 °FPassing clouds.6 mph76%30.45 "HgN/A
7:20 PM41 °FPassing clouds.7 mph76%30.45 "HgN/A
6:50 PM41 °FPassing clouds.6 mph76%30.45 "HgN/A
6:20 PM41 °FPassing clouds.6 mph76%30.45 "HgN/A
5:50 PM41 °FPassing clouds.7 mph76%30.45 "HgN/A
5:20 PM41 °FPassing clouds.8 mph76%30.45 "HgN/A
4:50 PM43 °FPassing clouds.6 mph71%30.45 "HgN/A
4:20 PM43 °FPartly sunny.8 mph71%30.45 "HgN/A
Weather by CustomWeather, © 2014

See weather overviewHow to use our weather pages